• In Portugal
  • List of Countries
  • For 7 days
  • Water Temperature
  • Satellite Maps
  • Weather Map
  • Weather Widgets
  • user-avatar
    Login

    Hourly Weather Ulan Bator

    Today, 18 June, Monday

    Time Temperature Precipitation Wind Pressure Humidity
    00:00 +10°C° 0 mm 2 mps 648 mmHg 82%
    01:00 +9°C° 0 mm 2 mps 648 mmHg 82%
    02:00 +9°C° 0 mm 2 mps 648 mmHg 82%
    03:00 +8°C° 0 mm 2 mps 648 mmHg 82%
    04:00 +8°C° 0 mm 2 mps 648 mmHg 83%
    05:00 +10°C° 0 mm 2 mps 649 mmHg 77%
    06:00 +11°C° 0 mm 3 mps 650 mmHg 71%
    07:00 +13°C° 0 mm 3 mps 650 mmHg 65%
    08:00 +14°C° 0 mm 4 mps 651 mmHg 60%
    09:00 +15°C° 0 mm 5 mps 651 mmHg 55%
    10:00 +16°C° 0 mm 6 mps 651 mmHg 50%
    11:00 +17°C° 0 mm 5 mps 651 mmHg 47%
    12:00 +19°C° 0 mm 5 mps 651 mmHg 44%
    13:00 +19°C° 0 mm 6 mps 651 mmHg 42%
    14:00 +19°C° 0 mm 5 mps 651 mmHg 43%
    15:00 +19°C° 0 mm 5 mps 651 mmHg 44%
    16:00 +19°C° 0 mm 5 mps 651 mmHg 45%
    17:00 +18°C° 0 mm 4 mps 651 mmHg 50%
    18:00 +17°C° 0 mm 3 mps 650 mmHg 55%
    19:00 +16°C° 0 mm 3 mps 650 mmHg 60%
    20:00 +15°C° 0 mm 2 mps 650 mmHg 63%
    21:00 +14°C° 0 mm 2 mps 650 mmHg 66%
    22:00 +13°C° 0 mm 1 mps 650 mmHg 69%
    23:00 +12°C° 0 mm 1 mps 650 mmHg 70%

    Tomorrow, 19 June, Tuesday

    Time Temperature Precipitation Wind Pressure Humidity
    00:00 +12°C° 0 mm 1 mps 650 mmHg 71%
    01:00 +11°C° 0 mm 1 mps 650 mmHg 72%
    02:00 +11°C° 0 mm 1 mps 650 mmHg 72%
    03:00 +11°C° 0 mm 1 mps 650 mmHg 73%
    04:00 +10°C° 0 mm 1 mps 649 mmHg 73%
    05:00 +12°C° 0 mm 1 mps 650 mmHg 67%
    06:00 +14°C° 0 mm 1 mps 650 mmHg 61%
    07:00 +16°C° 0 mm 1 mps 651 mmHg 55%
    08:00 +18°C° 0 mm 1 mps 651 mmHg 49%
    09:00 +20°C° 0 mm 1 mps 651 mmHg 43%
    10:00 +21°C° 0 mm 1 mps 651 mmHg 37%
    11:00 +22°C° 0 mm 1 mps 651 mmHg 34%
    12:00 +23°C° 0 mm 1 mps 651 mmHg 31%
    13:00 +24°C° 0 mm 1 mps 651 mmHg 28%
    14:00 +24°C° 0 mm 1 mps 651 mmHg 27%
    15:00 +25°C° 0 mm 2 mps 651 mmHg 27%
    16:00 +25°C° 0 mm 2 mps 650 mmHg 27%
    17:00 +23°C° 0 mm 2 mps 650 mmHg 32%
    18:00 +22°C° 0 mm 1 mps 649 mmHg 38%
    19:00 +21°C° 0 mm 1 mps 649 mmHg 44%
    20:00 +19°C° 0 mm 1 mps 649 mmHg 44%
    21:00 +18°C° 0 mm 1 mps 649 mmHg 45%
    22:00 +16°C° 0 mm 1 mps 648 mmHg 45%
    23:00 +16°C° 0 mm 1 mps 648 mmHg 45%

    Day after tomorrow, 20 June, Wednesday

    Time Temperature Precipitation Wind Pressure Humidity
    00:00 +15°C° 0 mm 1 mps 648 mmHg 45%
    01:00 +15°C° 0 mm 2 mps 648 mmHg 44%
    02:00 +15°C° 0 mm 2 mps 648 mmHg 44%
    03:00 +15°C° 0 mm 2 mps 647 mmHg 43%
    04:00 +15°C° 0 mm 2 mps 647 mmHg 43%
    05:00 +16°C° 0 mm 2 mps 647 mmHg 42%
    06:00 +18°C° 0 mm 3 mps 648 mmHg 40%
    07:00 +20°C° 0 mm 3 mps 648 mmHg 39%
    08:00 +21°C° 0 mm 4 mps 648 mmHg 38%
    09:00 +23°C° 0 mm 4 mps 648 mmHg 36%
    10:00 +26°C° 0 mm 5 mps 648 mmHg 34%
    11:00 +27°C° 0 mm 5 mps 648 mmHg 33%
    12:00 +28°C° 0 mm 5 mps 648 mmHg 31%
    13:00 +29°C° 0 mm 5 mps 648 mmHg 29%
    14:00 +29°C° 0 mm 5 mps 647 mmHg 29%
    15:00 +30°C° 0 mm 5 mps 647 mmHg 28%
    16:00 +30°C° 0 mm 4 mps 647 mmHg 27%
    17:00 +28°C° 0 mm 3 mps 646 mmHg 32%
    18:00 +26°C° 0 mm 2 mps 646 mmHg 38%
    19:00 +25°C° 0 mm 1 mps 645 mmHg 44%
    20:00 +23°C° 0 mm 1 mps 645 mmHg 45%
    21:00 +22°C° 0 mm 1 mps 645 mmHg 45%
    22:00 +21°C° 0 mm 1 mps 645 mmHg 46%
    23:00 +21°C° 0 mm 1 mps 645 mmHg 46%

    21 June, Thursday

    Time Temperature Precipitation Wind Pressure Humidity
    00:00 +19°C° 0 mm 2 mps 645 mmHg 45%
    01:00 +19°C° 0 mm 2 mps 645 mmHg 45%
    02:00 +19°C° 0 mm 2 mps 644 mmHg 46%
    03:00 +18°C° 0 mm 2 mps 644 mmHg 47%
    04:00 +18°C° 0 mm 1 mps 644 mmHg 49%
    05:00 +19°C° 0 mm 2 mps 645 mmHg 47%
    06:00 +20°C° 0 mm 2 mps 645 mmHg 46%
    07:00 +21°C° 0 mm 2 mps 646 mmHg 45%
    08:00 +23°C° 0 mm 2 mps 646 mmHg 45%
    09:00 +24°C° 0 mm 3 mps 646 mmHg 45%
    10:00 +25°C° 0 mm 3 mps 646 mmHg 45%
    11:00 +26°C° 0.1 mm 4 mps 646 mmHg 47%
    12:00 +26°C° 0.1 mm 4 mps 646 mmHg 48%
    13:00 +26°C° 0.1 mm 4 mps 645 mmHg 50%
    14:00 +26°C° 0.5 mm 4 mps 645 mmHg 53%
    15:00 +25°C° 0.5 mm 5 mps 645 mmHg 55%
    16:00 +25°C° 0.5 mm 5 mps 645 mmHg 58%
    17:00 +23°C° 0 mm 4 mps 645 mmHg 62%
    18:00 +22°C° 0 mm 4 mps 645 mmHg 67%
    19:00 +21°C° 0 mm 4 mps 645 mmHg 72%
    20:00 +19°C° 0 mm 3 mps 645 mmHg 77%
    21:00 +18°C° 0 mm 2 mps 645 mmHg 82%
    22:00 +17°C° 0 mm 2 mps 645 mmHg 88%
    23:00 +16°C° 0 mm 2 mps 645 mmHg 89%

    22 June, Friday

    Time Temperature Precipitation Wind Pressure Humidity
    00:00 +16°C° 0 mm 1 mps 645 mmHg 91%
    01:00 +15°C° 0 mm 1 mps 645 mmHg 92%
    02:00 +15°C° 0 mm 1 mps 645 mmHg 93%
    03:00 +15°C° 0 mm 1 mps 645 mmHg 93%
    04:00 +14°C° 0 mm 1 mps 645 mmHg 93%
    05:00 +16°C° 0 mm 1 mps 645 mmHg 87%
    06:00 +17°C° 0 mm 2 mps 646 mmHg 81%
    07:00 +19°C° 0 mm 2 mps 646 mmHg 75%
    08:00 +20°C° 0 mm 2 mps 647 mmHg 67%
    09:00 +23°C° 0 mm 2 mps 647 mmHg 58%
    10:00 +24°C° 0 mm 3 mps 647 mmHg 49%
    11:00 +25°C° 0 mm 3 mps 647 mmHg 46%
    12:00 +26°C° 0 mm 2 mps 647 mmHg 42%
    13:00 +27°C° 0 mm 2 mps 647 mmHg 39%
    14:00 +27°C° 0 mm 3 mps 647 mmHg 41%
    15:00 +27°C° 0 mm 3 mps 647 mmHg 43%
    16:00 +26°C° 0 mm 4 mps 646 mmHg 45%
    17:00 +25°C° 0.2 mm 3 mps 646 mmHg 53%
    18:00 +22°C° 0.2 mm 3 mps 646 mmHg 60%
    19:00 +21°C° 0.2 mm 3 mps 646 mmHg 68%
    20:00 +20°C° 0.2 mm 3 mps 646 mmHg 73%
    21:00 +18°C° 0.2 mm 2 mps 646 mmHg 79%
    22:00 +17°C° 0.2 mm 2 mps 646 mmHg 84%
    23:00 +17°C° 0 mm 2 mps 646 mmHg 86%

    23 June, Saturday

    Time Temperature Precipitation Wind Pressure Humidity
    00:00 +16°C° 0 mm 2 mps 646 mmHg 88%
    01:00 +16°C° 0 mm 2 mps 645 mmHg 91%
    02:00 +15°C° 0 mm 2 mps 645 mmHg 92%
    03:00 +15°C° 0 mm 2 mps 645 mmHg 93%
    04:00 +15°C° 0 mm 2 mps 645 mmHg 94%
    05:00 +14°C° 0 mm 3 mps 645 mmHg 90%
    06:00 +16°C° 0 mm 3 mps 646 mmHg 87%
    07:00 +17°C° 0 mm 3 mps 646 mmHg 83%
    08:00 +17°C° 0.2 mm 3 mps 646 mmHg 82%
    09:00 +17°C° 0.2 mm 3 mps 646 mmHg 81%
    10:00 +17°C° 0.2 mm 3 mps 646 mmHg 79%
    11:00 +18°C° 0.2 mm 3 mps 646 mmHg 77%
    12:00 +18°C° 0.2 mm 3 mps 646 mmHg 74%
    13:00 +19°C° 0.2 mm 3 mps 646 mmHg 71%
    14:00 +20°C° 0.1 mm 3 mps 646 mmHg 66%
    15:00 +20°C° 0.1 mm 3 mps 646 mmHg 61%
    16:00 +21°C° 0.1 mm 3 mps 646 mmHg 56%
    17:00 +20°C° 0.1 mm 3 mps 646 mmHg 60%
    18:00 +20°C° 0.1 mm 3 mps 646 mmHg 64%
    19:00 +19°C° 0.1 mm 3 mps 646 mmHg 68%
    20:00 +17°C° 0 mm 2 mps 646 mmHg 72%
    21:00 +16°C° 0 mm 2 mps 645 mmHg 76%
    22:00 +15°C° 0 mm 2 mps 645 mmHg 79%
    23:00 +14°C° 0 mm 2 mps 645 mmHg 80%
    Show more